Regional Weather Roundup
Issued by NWS

Home | Current Version | Previous Version | Graphics & Text | Print | Product List | Glossary On
Versions: 1 2 3 4 5 6 7 8 9 10 11 12 13 14 15 16 17 18 19 20 21 22 23 24 25 26 27 28 29 30 31 32 33 34 35 36 37 38 39 40 41 42 43 44 45 46 47 48 49 50
638
ASUS43 KMKX 241111
RWRWI

WISCONSIN REGIONAL WEATHER ROUNDUP
NATIONAL WEATHER SERVICE MILWAUKEE/SULLIVAN WI
600 AM CDT SUN SEP 24 2017

NOTE: "FAIR" INDICATES FEW OR NO CLOUDS BELOW 12,000 FEET WITH NO
SIGNIFICANT WEATHER AND/OR OBSTRUCTIONS TO VISIBILITY.

WIZ001-002-006>008-014>016-023>028-241200-
NORTHWEST WISCONSIN

CITY           SKY/WX    TMP DP  RH WIND       PRES   REMARKS
SUPERIOR ARPT  CLOUDY    64  64 100 E7        29.95S FOG
ASHLAND        FOG       59  59 100 CALM      29.97S VSB 1/2
HAYWARD        CLEAR     64  61  90 CALM      29.99S
SIREN          PTCLDY    68  64  86 S7        29.96S
CUMBERLAND     CLEAR     66  61  82 SE3       29.99S
RICE LAKE      CLEAR     67  64  88 SE7       30.00S
CHETEK         CLEAR     67  65  93 MISG      30.00S
LADYSMITH      PTCLDY    70  63  78 SE3       30.03S
EAU CLAIRE     CLEAR     67  62  84 CALM      29.99R
MENOMONIE      CLEAR     66  64  94 CALM      29.99S
NEW RICHMOND   PTCLDY    69  60  74 S8        29.97S
OSCEOLA        PTCLDY    69  62  77 CALM      29.98R
$$

WIZ003>005-009-010-017-018-241200-
NORTH CENTRAL WISCONSIN

CITY           SKY/WX    TMP DP  RH WIND       PRES   REMARKS
MANITOWISH WTR NOT AVBL
ARBOR VITAE    CLEAR     71  65  81 S3        30.06S
WOODRUFF       CLEAR     71  65  81 S3        30.06S
RHINELANDER    CLEAR     63  62  97 CALM      30.08S
EAGLE RIVER    CLEAR     64  63  95 CALM      30.07S
LAND O LAKES   CLEAR     62  61  97 CALM      30.09S
PHILLIPS       PTCLDY    68  64  85 S5        30.04S
TOMAHAWK       CLEAR     61  59  95 CALM      30.07R FOG
MEDFORD        CLEAR     64  60  89 SE5       30.05S
MERRILL        CLEAR     59  59 100 CALM      30.07S FOG
$$

WIZ029-030-035-036-043>047-241200-
CENTRAL WISCONSIN

CITY           SKY/WX    TMP DP  RH WIND       PRES   REMARKS
WAUSAU         CLEAR     63  61  93 SE7       30.05S
MOSINEE        CLEAR     66  63  88 S6        30.07S
MARSHFIELD     CLEAR     64  60  87 S5        30.05S
STEVENS POINT  CLEAR     64  64  99 CALM      30.07S
WAUPACA        CLEAR     65  65  98 CALM      30.07R
WAUTOMA        CLEAR     62  61  96 CALM      30.07S
WISC RAPIDS    CLEAR     67  64  90 S5        30.07R
CAMP DOUGLAS   NOT AVBL
$$

WIZ011>013-019>022-031-037>040-048>050-241200-
NORTHEAST WISCONSIN

CITY           SKY/WX    TMP DP  RH WIND       PRES   REMARKS
ANTIGO         CLEAR     63  63  99 S3        30.09R
SHAWANO        CLEAR     69  65  85 CALM      30.06S
OCONTO           N/A     62  62  98 CALM      30.06S
STURGEON BAY   CLEAR     71  64  78 S7        30.08R
GREEN BAY      CLEAR     66  65  96 CALM      30.06F
MANITOWOC      CLEAR     64  63  96 E5        30.08R FOG
APPLETON       CLEAR     70  61  73 CALM      30.06S
CLINTONVILLE   CLEAR     64  63  94 CALM      30.06S
OSHKOSH        CLEAR     67  64  90 S5        30.06S
$$

WIZ032>034-041-042-053>061-241200-
SOUTHWEST WISCONSIN

CITY           SKY/WX    TMP DP  RH WIND       PRES   REMARKS
LA CROSSE      CLEAR     71  66  84 S6        30.01R
SPARTA         CLEAR     59  59 100 CALM      30.03F
VIROQUA        CLEAR     67  64  91 SE7       30.05S
BOSCOBEL       CLEAR     61  61 100 CALM      30.04S FOG
PRAIRIE DU CHI CLEAR     65  62  91 CALM      30.02S
PLATTEVILLE    CLEAR     67  64  90 E5        30.06S
$$

WIZ056-057-062-063-064-067-068-241200-
SOUTH CENTRAL WISCONSIN

CITY           SKY/WX    TMP DP  RH WIND       PRES   REMARKS
REEDSBURG      CLEAR     63  63 100 CALM      30.06R
BARABOO/DELLS  CLEAR     68  61  77 CALM      30.06S
LONE ROCK      CLEAR     61  61 100 CALM      30.05S
MINERAL POINT  CLEAR     68  64  88 SE6       30.07S
MADISON        CLEAR     65  64  97 CALM      30.06R
MIDDLETON      CLEAR     64  64 100 CALM      30.07S
WATERTOWN      CLEAR     63  63 100 CALM      30.07R
MONROE         CLEAR     66  63  88 S7        30.07S
JANESVILLE     CLEAR     66  64  94 CALM      30.06S
$$

WIZ051-052-058>065-066-070>072-241200-
SOUTHEAST WISCONSIN

CITY           SKY/WX    TMP DP  RH WIND       PRES   REMARKS
MILWAUKEE      CLEAR     70  66  87 S5        30.07S
WAUKESHA       CLEAR     63  61  94 CALM      30.09S
MILWAUKEE/TIMM CLEAR     64  59  82 CALM      30.08S
RACINE         CLEAR     70  69  97 CALM      30.09S FOG
BURLINGTON     FOG       59  59 100 CALM      30.09R VSB 1/4
KENOSHA        CLEAR     63  62  97 CALM      30.08S
FOND DU LAC    CLEAR     66  62  87 CALM      30.07S
SHEBOYGAN      CLEAR     61  61 100 CALM      30.08R FOG
WEST BEND        N/A     61  61 100 CALM      30.08S FOG
JUNEAU         CLEAR     67  64  89 CALM      30.08S
$$

LSZ147-162-241200-
LAKE SUPERIOR

STATION/POSITION TIME  TEMP    WIND        PRES    WAVE
                       AIR SEA DIR/SP/G            HT/PER
                 (UTC) (F)     (DEG/KT/KT) (MB)    (FT/S)
W MID LAKE BUOY  1050   59 55  100/  8/  8 1014.3F   1
DEVILS ISLAND    1100   62      40/  9/  9 1014.7S
SAXON HARBOR     1040           CALM  /  5 1014.2S
$$

LMZ867-665-643>646-241200-
LAKE MICHIGAN

STATION/POSITION TIME  TEMP    WIND        PRES    WAVE
                       AIR SEA DIR/SP/G            HT/PER
                 (UTC) (F)     (DEG/KT/KT) (MB)    (FT/S)
S GREEN BAY BUOY 1000   71 69  180/  8/  8 1017.7
N MID LAKE BUOY  1050   69 66  180/  8/ 10 1018.9R   1/ 3
NORTHPORT PIER   1040   72     150/  4/  7 1017.9S
KEWAUNEE LAKESHO 1048   64     150/  1/  2 1017.5R
SHEBOYGAN LAKESH 1100   69     140/  5/  5 1018.0R
PORT WASHINGTON  1030   68      CALM  /  1 1019.3R
ATWATER BUOY     1039   67 64  170/  2/  4 1018.6R
MILWAUKEE LAKESH 1050   68     110/  1/  2   N/A
S MID LAKE BUOY  1050   72 71  120/ 10/ 12 1018.7R   0
KENOSHA   LAKESH 1100   72     170/  5/  7 1018.3
$$

TC  - TEMPERATURE IN CELSIUS
VSB - VISIBILITY IN STATUTE MILES
WCI - WIND CHILL INDEX
HX  - HEAT INDEX





USA.gov is the U.S. government's official web portal to all federal, state and local government web resources and services.